Home > Weather > Heraklion > Past weeks

Flag for Greece Past Weather in Heraklion, Crete, Greece — Yesterday and Last 2 Weeks

Now
84 °F

Passing clouds.


Feels Like: 91 °F
Forecast: 76 / 85 °F
Wind: 16 mph from Northwest

Location: Heraklion Airport

Current Time: Jul 27, 2016 at 12:39:21 PM

Latest Report: Jul 27, 2016 at 11:50 AM


Visibility: N/A

Pressure: 29.83 "Hg

Humidity: 70%

Dew Point: 73 °F

Location of HeraklionLocation

Past Weather in Heraklion — Graph

°F

Heraklion Temperature Yesterday

Maximum temperature yesterday: 84 °F (at 11:50 AM)
Minimum temperature yesterday: 77 °F (at 1:50 AM)
Average temperature yesterday: 80 °F

High & Low Weather Summary for the Past Weeks

 TemperatureHumidityPressure
High91 °F (Jul 15, 12:50 PM)89% (Jul 17, 5:50 PM)29.95 "Hg (Jul 17, 5:50 PM)
Low68 °F (Jul 13, 5:50 AM)41% (Jul 15, 12:50 PM)29.71 "Hg (Jul 15, 3:50 AM)
Average79 °F70%29.82 "Hg
* Reported Jul 12 11:20 AM — Jul 27 11:20 AM, Heraklion, Weather by CustomWeather, © 2016

Note: Actual official high and low records may vary slightly from our data, if they occured in-between our weather recording intervals... More about our weather records

Advertising

Heraklion Weather History for the Previous 24 Hours

Scroll right to see more
 ConditionsComfort  
Time TempWeatherWind HumidityBarometerVisibility
11:20 AM
Wed, Jul 27
84 °FPassing clouds.14 mph66%29.83 "HgN/A
10:50 AM84 °FPassing clouds.15 mph66%29.83 "HgN/A
10:20 AM82 °FSunny.16 mph70%29.83 "Hg10 mi
9:50 AM82 °FSunny.16 mph70%29.83 "Hg10 mi
9:20 AM82 °FSunny.14 mph66%29.83 "Hg10 mi
8:50 AM82 °FSunny.16 mph66%29.83 "Hg10 mi
8:20 AM82 °FSunny.16 mph66%29.83 "Hg10 mi
7:50 AM82 °FSunny.15 mph66%29.83 "Hg10 mi
7:20 AM79 °FClear.15 mph74%29.83 "Hg10 mi
6:50 AM79 °FClear.13 mph74%29.83 "Hg10 mi
6:20 AM75 °FClear.9 mph78%29.83 "Hg10 mi
5:50 AM75 °FClear.9 mph78%29.83 "Hg10 mi
5:20 AM75 °FClear.3 mph83%29.80 "Hg10 mi
4:50 AM75 °FClear.7 mph83%29.80 "Hg10 mi
4:20 AM75 °FClear.2 mph83%29.80 "Hg10 mi
3:50 AM75 °FClear.8 mph83%29.80 "Hg10 mi
3:20 AM77 °FClear.5 mph89%29.83 "Hg10 mi
2:50 AM77 °FClear.3 mph89%29.83 "Hg10 mi
2:20 AM77 °FClear.10 mph89%29.83 "Hg10 mi
1:50 AM77 °FClear.9 mph89%29.83 "Hg10 mi
1:20 AM77 °FClear.10 mph89%29.83 "Hg10 mi
12:50 AM77 °FClear.12 mph89%29.83 "Hg10 mi
12:20 AM77 °FClear.14 mph83%29.83 "Hg10 mi
11:50 PM
Tue, Jul 26
77 °FClear.14 mph83%29.83 "Hg10 mi
11:20 PM77 °FClear.12 mph89%29.83 "Hg10 mi
10:50 PM77 °FClear.10 mph89%29.83 "Hg10 mi
10:20 PM77 °FClear.10 mph89%29.83 "Hg10 mi
9:50 PM77 °FClear.9 mph89%29.83 "Hg10 mi
9:20 PM77 °FSunny.9 mph83%29.83 "Hg10 mi
8:50 PM77 °FSunny.6 mph83%29.83 "Hg10 mi
8:20 PM79 °FSunny.9 mph84%29.80 "Hg10 mi
7:50 PM79 °FSunny.9 mph84%29.80 "Hg10 mi
7:20 PM81 °FSunny.10 mph79%29.80 "Hg10 mi
6:50 PM81 °FSunny.10 mph79%29.80 "Hg10 mi
6:20 PM82 °FSunny.10 mph79%29.80 "Hg10 mi
5:50 PM82 °FSunny.9 mph79%29.80 "Hg10 mi
5:20 PM82 °FSunny.16 mph74%29.83 "Hg10 mi
4:50 PM82 °FSunny.14 mph74%29.83 "Hg10 mi
4:20 PM84 °FSunny.15 mph70%29.83 "Hg10 mi
3:50 PM84 °FSunny.15 mph70%29.83 "Hg10 mi
3:20 PM84 °FSunny.18 mph66%29.83 "Hg10 mi
2:50 PM84 °FSunny.18 mph66%29.80 "Hg10 mi
2:20 PM84 °FPassing clouds.18 mph70%29.83 "HgN/A
1:50 PM84 °FPassing clouds.16 mph70%29.83 "HgN/A
1:20 PM82 °FSunny.15 mph74%29.83 "Hg10 mi
12:50 PM82 °FSunny.15 mph74%29.83 "Hg10 mi
12:20 PM84 °FPassing clouds.17 mph66%29.80 "HgN/A
Weather by CustomWeather, © 2016

See weather overviewHow to use our weather pages